SV1IW Athens current weather conditions

sailwx.info

Wind from 254

Air temperature 28.9° C
Dewpoint 18.3° C

Last reported at 2014-Jul-29 23:30 UTC.
Time now 2014-Jul-30 09:09 UTC

Location: N 37°58' E 023°43'.
View on Google Maps.

See reports from other nearby stations

  
Tides and Currents Weather Stations Pressure Air Temp Water Temp Dewpoint Dewpoint Depression Visibility Wind Speed Wind Dir Waves Ship Positions
date/time (UTC)wind fromknots sea level pressurealtimeterstation pressurevisibilityair tempwater tempwave heightnotes
2014-Jul-29 23:30 254 28.9
2014-Jul-29 23:00 232 1 gusting 4 29.4
2014-Jul-29 22:30 248 1 gusting 4 29.4
2014-Jul-29 22:00 123 29.4
2014-Jul-29 21:30 125 29.4
2014-Jul-29 21:00 122 28.9
2014-Jul-29 20:30 121 0 gusting 4 28.9
2014-Jul-29 20:00 245 28.9
2014-Jul-29 19:30 268 2 gusting 6 28.9
2014-Jul-29 19:00 242 3 gusting 6 28.9
2014-Jul-29 18:30 243 2 gusting 6 28.9
2014-Jul-29 18:00 248 4 gusting 6 29.4
2014-Jul-29 17:30 273 4 gusting 7 29.4
2014-Jul-29 17:00 225 3 gusting 7 30.0
2014-Jul-29 16:30 195 3 gusting 10 30.6
2014-Jul-29 16:00 185 4 gusting 8 30.6
2014-Jul-29 15:30 249 5 gusting 10 31.7
2014-Jul-29 15:00 219 6 gusting 8 32.2
2014-Jul-29 14:30 225 5 gusting 10 32.2
2014-Jul-29 14:00 216 4 gusting 7 32.8
2014-Jul-29 13:30 087 4 gusting 7 32.8
2014-Jul-29 13:00 240 5 gusting 8 32.8
2014-Jul-29 12:30 150 4 gusting 11 33.3
2014-Jul-29 12:00 207 4 gusting 10 32.8
2014-Jul-29 11:30 198 3 gusting 7 32.8
2014-Jul-29 11:00 180 4 gusting 7 32.8
2014-Jul-29 10:30 238 4 gusting 10 32.8
2014-Jul-29 10:00 250 6 gusting 10 32.2
2014-Jul-29 09:30 252 5 gusting 7 31.7
2014-Jul-29 09:00 202 4 gusting 6 31.1
2014-Jul-29 08:30 218 2 gusting 6 31.1
2014-Jul-28 23:00 317 29.4
2014-Jul-28 22:30 254 29.4
2014-Jul-28 22:00 220 0 gusting 2 29.4
2014-Jul-28 21:30 216 29.4
2014-Jul-28 21:00 216 29.4
2014-Jul-28 20:30 212 29.4
2014-Jul-28 20:00 213 30.0
2014-Jul-28 19:30 253 4 gusting 5 30.0
2014-Jul-28 19:00 223 0 gusting 4 30.6
2014-Jul-28 18:30 042 30.6
2014-Jul-28 18:00 329 0 gusting 5 30.0
2014-Jul-28 17:30 183 2 gusting 5 30.6
2014-Jul-28 17:00 227 0 gusting 6 30.6
2014-Jul-28 16:30 235 4 gusting 6 30.6
2014-Jul-28 16:00 192 3 gusting 7 31.1
2014-Jul-28 15:30 205 5 gusting 10 31.7
2014-Jul-28 15:00 242 6 gusting 10 31.7
2014-Jul-28 14:30 235 6 gusting 10 32.2
2014-Jul-28 14:00 241 6 gusting 10 32.2
2014-Jul-28 13:30 177 5 gusting 10 32.2
2014-Jul-28 13:00 224 5 gusting 8 32.2
2014-Jul-28 12:30 216 6 gusting 7 32.2
2014-Jul-28 12:00 204 5 gusting 8 32.2
2014-Jul-28 11:30 203 5 gusting 10 31.7
2014-Jul-28 11:00 185 5 gusting 8 31.7
2014-Jul-28 10:30 194 4 gusting 6 32.2
2014-Jul-28 10:00 203 4 gusting 7 32.8
2014-Jul-28 09:30 241 5 gusting 8 32.2